Regional Weather Roundup
Issued by NWS

Home | Current Version | Previous Version | Text Only | Print | Product List | Glossary On
Versions: 1 2 3 4 5 6 7 8 9 10 11 12 13 14 15 16 17 18 19 20 21 22 23 24 25 26 27 28 29 30 31 32 33 34 35 36 37 38 39 40 41 42 43 44 45 46 47 48 49 50
000
ASHW40 PHFO 282243
RWRHI

WEATHER ROUNDUP FOR HAWAII
NATIONAL WEATHER SERVICE HONOLULU HI
1200 PM HST TUE JUL 28 2015

THIS IS AN AUTOMATED REPORT THAT HAS NOT BEEN QUALITY CONTROLLED.

NOTE..."FAIR" INDICATES FEW OR NO CLOUDS BELOW 12,000 FEET WITH NO
SIGNIFICANT WEATHER AND/OR OBSTRUCTIONS TO VISIBILITY.

* - THESE SITES REPORT LIMITED FIELDS

HIZ001>004-282300-
KAUAI-NIIHAU-

CITY           SKY/WX    TMP DP  RH WIND       PRES   REMARKS
LIHUE APT      SUNNY     86  69  56 E14       29.98F HX  90
PORT ALLEN*    NOT AVBL
POIPU*           N/A     86 N/A N/A NE7G14      N/A
PRINCEVILLE*     N/A     82 N/A N/A MISG        N/A
KOKOLE POINT*  NOT AVBL
MOLOAA DAIRY*  NOT AVBL
WAIMEA HTS*      N/A     88  70  55 SE8G18      N/A  HX  92
PUU OPAE*        N/A     77  66  69 W5G16       N/A
PUU LUA*       NOT AVBL
MAKAHA RIDGE*    N/A     81  68  65 NW3         N/A
$$

HIZ005>011-282300-
OAHU-

CITY           SKY/WX    TMP DP  RH WIND       PRES   REMARKS
HONOLULU       PTSUNNY   86  72  62 S10       29.94S HX  92
KALAELOA       SUNNY     87  70  56 SE12      29.95F HX  92
KANEOHE MCB    CLOUDY    83  73  72 E14G20    29.93F
WHEELER FIELD  FAIR      86  70  58 E13G20    29.94F HX  90
BELLOWS*         N/A    N/A N/A N/A E16         N/A
KAHUKU*          N/A    N/A N/A N/A E13G22      N/A
WHEELER*       NOT AVBL
WAIANAE HARBOR NOT AVBL
DILLINGHAM*      N/A     90  68  48 MISG        N/A  HX  93
KAHUKU TRN*      N/A    N/A N/A N/A E12G25      N/A
KAWAILOA*        N/A     81  70  69 E12G23      N/A
KII*             N/A     84  75  74 E16G22      N/A  HX  92
MAKUA RANGE*     N/A     88  70  55 W5          N/A  HX  92
OAHU FOREST NW   N/A     70  70 100 CALM        N/A
SCHOFIELD BRK*   N/A     70  55  60 MISG        N/A
SCHOFIELD S*   NOT AVBL
WAIANAE VLY*     N/A     90  72  55 MISG        N/A  HX  96
KUAOKALA*        N/A     82  68  61 SW7         N/A
HONOULIUULI*   NOT AVBL
MOKUOLOE IS*     N/A    N/A N/A N/A MISG        N/A
PALEHUA*         N/A     81  66  61 E3G12       N/A
WAIAWA PHB*    NOT AVBL
$$

HIZ012>013-282300-
MOLOKAI-

CITY           SKY/WX    TMP DP  RH WIND       PRES   REMARKS
MOLOKAI AIRPT  MOSUNNY   88  68  51 S13G22    29.94S HX  91
KALAUPAPA      NOT AVBL
MAKAPULAPAI*     N/A     88  72  58 E20G29      N/A  HX  94
MOLOKAI 1*       N/A     82  66  57 SE2G12      N/A
PUU ALII*        N/A     76  65  70 CALM        N/A
$$

HIZ016-282300-
KAHOOLAWE-

CITY           SKY/WX    TMP DP  RH WIND       PRES   REMARKS
KAHOOLAWE*       N/A     81 N/A N/A E24G35      N/A
HAKIOAWA*        N/A     82  68  62 MISG      30.36F
HONOKANAIA*      N/A     86  69  57 NE21G40   29.94F HX  90
KANELOA*         N/A     81  68  65 E25G38    30.02S
KEALIALALO*      N/A     84  68  58 SE21G43   29.93F
LUA MAKIKA*    NOT AVBL
$$

HIZ014>015-282300-
LANAI-

CITY           SKY/WX    TMP DP  RH WIND       PRES   REMARKS
LANAI CITY     FAIR      82  66  58 SW7       30.01F
LANAI 1*         N/A     72  59  64 W3G17       N/A
$$

HIZ017>028-282300-
MAUI-

CITY           SKY/WX    TMP DP  RH WIND       PRES   REMARKS
KAHULUI        MOSUNNY   93  70  46 E13G22    29.92F HX  99
KAPALUA-W MAUI MOSUNNY   84  70  61 W8        29.96
HANA AIRPORT   PTSUNNY   84  73  70 E9        29.99S HX  91
HANA*            N/A     84 N/A N/A SE8G20      N/A
HALEAKALA SUMM   N/A     61  37  41 S3G22       N/A
MAALAEA BAY*   NOT AVBL
HALEAKALA*     NOT AVBL
KAUPO GAP*       N/A     81  63  54 SE7G16      N/A
KULA 1*          N/A     68  62  82 NW5G10      N/A
$$

HIZ023>026-282300-
BIG ISLAND OF HAWAII COAST AND LOWER SLOPES-

CITY           SKY/WX    TMP DP  RH WIND       PRES   REMARKS
KAILUA KONA    MOSUNNY   87  73  62 NW8       29.91F HX  94
HILO           CLOUDY    83  74  74 SW8       29.98F
HONOKAA*       NOT AVBL
KAWAIHAE MWT*    N/A     84 N/A N/A W8          N/A
KAWAIHAE*        N/A     82 N/A N/A W9          N/A
SOUTH POINT*     N/A     82 N/A N/A NE21G29     N/A
UPOLU AIRPORT*   N/A    N/A N/A N/A E20G30      N/A
KAMUELA*       CLEAR     84  66  54 W8        30.05S
HAKALAU*         N/A     68  57  68 S10G17      N/A
KALOKO-HONOKO*   N/A     90  73  58 W9        29.91F HX  98
PALI 2*          N/A     75  64  69 E13G22      N/A
KEALAKOMO*       N/A     90  75  62 E12         N/A  HX 100
KAUPULEHU*       N/A     86  68  54 W10G16      N/A
KAPAPALA*        N/A     80  68  67 E5G13       N/A
LOWER KAHUKU*    N/A     68  66  94 N3G15       N/A
PUHE CS*         N/A     86  72  62 W6          N/A  HX  92
PUHO CS*         N/A     86  70  58 W3          N/A  HX  90
PTA KEAMUKU*     N/A     79  66  65 CALM        N/A
WAIKOLOA*        N/A     86  68  54 NW7G16      N/A
$$

HIZ027>028-282300-
BIG ISLAND OF HAWAII INTERIOR AND SUMMMITS-

CITY           SKY/WX    TMP DP  RH WIND       PRES   REMARKS
BRADSHAW FIELD SUNNY     76  44  31 S6G15     30.31F
MK VISITOR CEN   N/A      0   0 100 MISG        N/A
MAUNA KEA*       N/A     50  25  37 SE13        N/A
MAUNA LOA*       N/A     52  39  62 MISG        N/A
MAUNA LOA 1*   NOT AVBL
PTA KIPUKA*      N/A     75  59  57 NW7G14      N/A
PTA RANGE 17*    N/A     57  43  58 W10G18      N/A
PTA WEST*        N/A     75  63  64 NW8G16      N/A
NENE CABIN*      N/A     63  50  63 E8G14       N/A
AHUMOA*          N/A     67  60  79 NW9         N/A
PTA PORTABLE*  NOT AVBL
PUU MALI*        N/A     72  54  53 NE9G15      N/A
$$

HIC003-282300-
NORTHWEST ISLANDS-

CITY           SKY/WX    TMP DP  RH WIND       PRES   REMARKS
MIDWAY ISLAND  MOSUNNY   82  72  69 E17       30.06S
MIDWAY NOS*    NOT AVBL
FRENCH FRIGATE NOT AVBL
$$

PHZ110>124-180-282300-
BUOY REPORTS

STATION/POSITION TIME  TEMP    WIND        PRES    WAVE   SWELL
                       AIR SEA DIR/SP/G            HT/PER HT/DIR
                 (UTC) (F)     (DEG/KT/KT) (MB)    (FT/S) (FT/D)
BUOY 51001       NOT AVBL
BUOY 51101       2200   81 81  120/ 14/ 17 1014.1F   6/15   5/150
BUOY 51100       NOT AVBL
BUOY 51002       2200   81 82  100/ 21/ 25 1011.1F  10/ 8   3/140
BUOY 51003       2200   82 83  120/ 16/ 17 1013.1F   6/14   3
BUOY 51004       2056   81 81   90/ 16/ 19 1014.1    7/ 8   5/130
BARBERS PT BUOY  NOT AVBL
WAIMEA BAY BUOY  2200      81                N/A     3/ 8   2/260
KAILUA BAY BUOY  2200      81                N/A     6/ 8   2/140
LANAI BUOY       NOT AVBL
BARBERS PT 2     2200      83                N/A     5/14   3/200
PAUWELA MAUI     2200      80                N/A     6/ 6
HILO             NOT AVBL
KANEOHE BAY BUOY 2200      80                N/A     5/ 7
HANALEI KAUAI    2200      81                N/A     4/ 8
KAHULUI HARBOR   2200   84 82   50/ 13/ 17 1013.1F
HONOLULU HARBOR  2200   86 82   60/  5/  7 1013.8F
KILO NALU        NOT AVBL
HILO HARBOR      2200   85 78  180/  5/  9 1014.6F
MOKUOLOE         2200      84              1014.6S
NAWILIWILI       2200   81 82   80/ 12/ 14 1014.7F
WHOTS BUOY       NOT AVBL
BUOY 51028       NOT AVBL
$$

......................KEY........................................
  SKY/WX - SKY CONDITIONS/PRESENT WEATHER
  TMP    - TEMPERATURE IN FAHRENHEIT
  DWPT   - DEWPOINT IN FAHRENHEIT
  RH     - RELATIVE HUMIDITY IN PERCENT
  WIND   - DIRECTION AND SPEED /MPH FOR ISLANDS...KTS FOR BUOYS/
  PRES   - MEAN SEA LEVEL PRESSURE IN INCHES OF HG
  VSB    - VISIBILITY IN MILES
  HX     - HEAT INDEX
  WCI    - WIND CHILL INDEX
  VRB    - VARIABLE WIND DIRECTION
  N/A    - NOT AVAILABLE


USA.gov is the U.S. government's official web portal to all federal, state and local government web resources and services.